Flag for Canada Weather past 2 weeks in Norman Wells, Northwest Territories, Canada

Now
28 °F

Broken clouds.


Feels Like: 21 °F
Forecast: 18 / 26 °F
Wind: 7 mph from West

Location: Norman Wells

Current Time: Mar 28, 2015 at 6:44:48 PM

Latest Report: Mar 28, 2015 at 6:00 PM


Visibility: 30 mi

Pressure: 29.78 "Hg

Humidity: 64%

Dew point: 18 °F

Location of Norman WellsLocation

Historic Weather in Norman Wells — Graph

°F

Norman Wells temperature yesterday

Maximum temperature yesterday: 39 °F (at 5:00 PM)
Minimum temperature yesterday: 5 °F (at 8:00 AM)
Average temperature yesterday: 23 °F

Past Weeks' High & Low Weather Summary

 TemperatureHumidityPressure
High39 °F (Mar 27, 5:00 PM)92% (Mar 25, 7:00 AM)30.45 "Hg (Mar 25, 7:00 AM)
Low-36 °F (Mar 16, 4:52 AM)38% (Mar 26, 6:00 PM)29.51 "Hg (Mar 27, 11:00 AM)
Average6 °F65%30.07 "Hg
* Reported Mar 13 5:00 PM — Mar 28 5:00 PM, Norman Wells, Weather by CustomWeather, © 2015

Note: Actual official high and low records may vary slightly from our data, if they occured in-between our weather recording intervals... More about our weather records

Advertising

Norman Wells weather history for previous 24 hours

 ConditionsComfort  
Time TempWeatherWind HumidityBarometerVisibility
5:00 PM
Sat, Mar 28
30 °FPartly sunny.3 mph69%29.78 "Hg30 mi
4:00 PM28 °FBroken clouds.8 mph64%29.79 "Hg30 mi
3:00 PM25 °FBroken clouds.6 mph69%29.79 "Hg30 mi
2:00 PM23 °FBroken clouds.6 mph74%29.78 "Hg30 mi
1:00 PM23 °FLight snow. Mostly cloudy.3 mph80%29.77 "Hg20 mi
12:00 PM23 °FLight snow. Mostly cloudy.2 mph68%29.76 "Hg4 mi
11:00 AM21 °FLight snow. Mostly cloudy.2 mph63%29.75 "Hg15 mi
10:00 AM21 °FScattered showers. Mostly cloudy.3 mph68%29.74 "Hg20 mi
9:00 AM21 °FMostly cloudy.2 mph68%29.72 "Hg30 mi
8:00 AM19 °FMostly cloudy.3 mph73%29.71 "Hg30 mi
7:00 AM19 °FPassing clouds.2 mph68%29.70 "Hg30 mi
6:00 AM19 °FPassing clouds.No wind68%29.67 "Hg30 mi
5:00 AM19 °FPassing clouds.7 mph68%29.66 "Hg30 mi
4:00 AM21 °FPassing clouds.6 mph68%29.65 "Hg30 mi
3:00 AM21 °FPassing clouds.10 mph68%29.63 "Hg30 mi
2:00 AM21 °FPassing clouds.7 mph74%29.61 "Hg30 mi
1:00 AM25 °FPassing clouds.8 mph74%29.60 "Hg30 mi
12:00 AM27 °FPartly cloudy.7 mph74%29.59 "Hg30 mi
11:00 PM
Fri, Mar 27
32 °FBroken clouds.8 mph64%29.58 "Hg30 mi
10:00 PM34 °FLight rain. Mostly cloudy.6 mph60%29.57 "Hg30 mi
9:00 PM36 °FPartly sunny.7 mph60%29.56 "Hg30 mi
8:00 PM34 °FPartly sunny.9 mph70%29.54 "Hg30 mi
7:00 PM36 °FPartly sunny.6 mph56%29.53 "Hg30 mi
6:00 PM37 °FMostly cloudy.5 mph52%29.52 "Hg30 mi
Weather by CustomWeather, © 2015

See weather overviewHow to use our weather pages